• MPC Preparation (Info)

  • MPEC 2014-G03 : 2014 FR52

    The following Minor Planet Electronic Circular may be linked-to from your own Web pages, but must not otherwise be redistributed electronically.

    A form allowing access to any MPEC is at the bottom of this page.


    Read MPEC 2014-G02 Read MPEC 2014-G04


    M.P.E.C. 2014-G03                                Issued 2014 Apr. 2, 11:14 UT
    
         The Minor Planet Electronic Circulars contain information on unusual
             minor planets and routine data on comets.  They are published
       on behalf of Commission 20 of the International Astronomical Union by the
              Minor Planet Center, Smithsonian Astrophysical Observatory,
                              Cambridge, MA 02138, U.S.A.
    
                 Prepared using the Tamkin Foundation Computer Network
    
                                  MPC@CFA.HARVARD.EDU
                URL https://www.minorplanetcenter.net/    ISSN 1523-6714
    
                                       2014 FR52
    
    Observations:
         K14F52R* C2014 03 31.30710 11 49 57.05 +17 16 03.0          20.1 VqEG003G96
         K14F52R  C2014 03 31.31386 11 49 57.19 +17 15 55.0          20.5 VqEG003G96
         K14F52R  C2014 03 31.32063 11 49 57.29 +17 15 46.7          20.4 VqEG003G96
         K14F52R KC2014 03 31.39322 11 49 58.79 +17 14 19.1          20.5 RoEG003291
         K14F52R KC2014 03 31.39686 11 49 58.84 +17 14 14.1          20.5 RoEG003291
         K14F52R KC2014 03 31.40050 11 49 58.94 +17 14 09.7          20.0 RoEG003291
         K14F52R  C2014 03 31.41536 11 49 59.28 +17 13 50.0          20.8 VqEG003G96
         K14F52R  C2014 03 31.42504 11 49 59.53 +17 13 37.7          20.6 VqEG003G96
         K14F52R  C2014 03 31.43968 11 49 59.93 +17 13 19.1          20.2 VqEG003G96
         K14F52R  C2014 03 31.44935 11 50 00.21 +17 13 06.8          20.5 VqEG003G96
         K14F52R KC2014 04 01.16038 11 50 37.15 +16 58 33.3          20.1 RoEG003291
         K14F52R KC2014 04 01.16437 11 50 37.26 +16 58 28.4          20.2 RoEG003291
         K14F52R KC2014 04 01.16836 11 50 37.36 +16 58 23.6          20.2 RoEG003291
         K14F52R KC2014 04 02.13339 11 51 23.94 +16 36 36.7          20.0 RoEG003291
         K14F52R KC2014 04 02.13629 11 51 24.05 +16 36 33.1          19.8 RoEG003291
         K14F52R KC2014 04 02.13918 11 51 24.13 +16 36 29.3          20.0 RoEG003291
    
    Observer details:
    291 LPL/Spacewatch II.  Observer R. A. Mastaler.  1.8-m f/2.7 reflector + CCD.
    G96 Mt. Lemmon Survey.  Observer J. A. Johnson.  Measurers E. J. Christensen,
        A. R. Gibbs, A. D. Grauer, R. E. Hill, J. A. Johnson, R. A. Kowalski,
        S. M. Larson, F. C. Shelly.  1.5-m reflector + CCD.
    
    Orbital elements:
    2014 FR52                                                Earth MOID = 0.0423 AU
    Epoch 2014 May 23.0 TT = JDT 2456800.5                  MPC
    M   5.83217              (2000.0)            P               Q
    n   0.33364537     Peri.  196.78012     -0.69699988     +0.71589138
    a   2.0587929      Node    29.07327     -0.64780074     -0.60404391
    e   0.4926427      Incl.    4.85405     -0.30748230     -0.35018636
    P   2.95           H   23.6           G   0.15           U   7
    Residuals in seconds of arc
    140331 G96  0.2-  0.2-    140331 G96  0.0   0.1-    140401 291  0.0   0.0
    140331 G96  0.1+  0.1-    140331 G96  0.0   0.2-    140402 291  0.0   0.2-
    140331 G96  0.1-  0.3-    140331 G96  0.1-  0.1-    140402 291  0.1+  0.1+
    140331 291  0.3+  0.4+    140331 G96  0.1-  0.1-    140402 291  0.1-  0.1+
    140331 291  0.2-  0.0     140401 291  0.0   0.0
    140331 291  0.0   0.2+    140401 291  0.0   0.0
    
    Ephemeris:
    2014 FR52                a,e,i = 2.06, 0.49, 5                   q = 1.0445
    Date    TT    R. A. (2000) Decl.     Delta      r     Elong.  Phase     V
    2014 03 03    11 42 30.3 +18 51 42   0.2877  1.2695   163.3    13.0    22.2
    ...
    2014 03 18    11 45 07.4 +19 20 19   0.1980  1.1849   161.8    15.2    21.3
    ...
    2014 03 26    11 47 13.4 +18 33 55   0.1580  1.1455   158.0    19.0    20.9
    ...
    2014 04 01    11 50 27.3 +17 02 20   0.1308  1.1193   155.3    21.9    20.5
    2014 04 02    11 51 14.0 +16 40 11   0.1265  1.1153   154.9    22.3    20.4
    2014 04 03    11 52 06.3 +16 15 36   0.1222  1.1113   154.6    22.7    20.3
    ...
    2014 04 09    11 59 48.9 +12 43 21   0.09773 1.0897   153.4    24.3    19.9
    ...
    2014 04 17    12 21 13.4 +03 13 14   0.06870 1.0670   156.4    22.2    19.0
    ...
    2014 05 02    14 56 35.6 -45 03 08   0.04325 1.0454   149.8    29.0    18.1
    
    A. U. Tomatic                (C) Copyright 2014 MPC           M.P.E.C. 2014-G03
    

    Read MPEC 2014-G02 Read MPEC 2014-G04


    MPEC number:

    Enter an MPEC number in one of the following forms:

    • 1997-B01 (the full form)
    • J97B01 (the packed version of the full form)
    • B01 (the abbreviated form)